Home > Weather > Stockton > Past weeks

Flag for U.S.A. Weather for the Past 2 Weeks in Stockton, California, U.S.A.

Now
51 °F

Clear.


Feels Like: 50 °F
Forecast: 42 / 68 °F
Wind: 5 mph from West

Location: Stockton Metropolitan Airport

Current Time: Feb 6, 2016 at 9:12:34 PM

Latest Report: Feb 6, 2016 at 8:55 PM


Visibility: 10 mi

Pressure: 30.31 "Hg

Humidity: 77%

Dew point: 44 °F

Location of StocktonLocation

Historic Weather in Stockton — Graph

°F

Stockton Temperature Yesterday

Maximum temperature yesterday: 62 °F (at 1:55 PM)
Minimum temperature yesterday: 38 °F (at 12:55 AM)
Average temperature yesterday: 48 °F

High & Low Weather Summary for the Past Weeks

 TemperatureHumidityPressure
High65 °F (Feb 6, 3:55 PM)100% (Jan 24, 6:55 AM)30.48 "Hg (Jan 24, 6:55 AM)
Low35 °F (Feb 3, 4:55 AM)31% (Feb 1, 2:55 PM)29.70 "Hg (Jan 31, 2:55 PM)
Average49 °F80%30.21 "Hg
* Reported Jan 22 7:55 PM — Feb 6 7:55 PM, Stockton, Weather by CustomWeather, © 2016

Note: Actual official high and low records may vary slightly from our data, if they occured in-between our weather recording intervals... More about our weather records

Advertising

Stockton Weather History for the Previous 24 Hours

 ConditionsComfort  
Time TempWeatherWind HumidityBarometerVisibility
7:55 PM
Sat, Feb 6
53 °FClear.7 mph72%30.31 "Hg10 mi
6:55 PM55 °FClear.7 mph67%30.30 "Hg10 mi
5:55 PM56 °FClear.7 mph67%30.30 "Hg10 mi
4:55 PM61 °FSunny.7 mph62%30.29 "Hg10 mi
3:55 PM65 °FSunny.9 mph49%30.31 "Hg10 mi
2:55 PM64 °FSunny.12 mph54%30.32 "Hg10 mi
1:55 PM63 °FSunny.7 mph54%30.33 "Hg10 mi
12:55 PM61 °FSunny.8 mph58%30.37 "Hg10 mi
11:55 AM58 °FSunny.7 mph67%30.40 "Hg10 mi
10:55 AM55 °FSunny.5 mph74%30.43 "Hg10 mi
9:55 AM50 °FFog.5 mph89%30.44 "Hg4 mi
9:04 AM45 °FFog.5 mph97%30.44 "Hg4 mi
8:55 AM45 °FFog.5 mph97%30.44 "Hg2 mi
7:55 AM41 °FFog.3 mph100%30.44 "Hg0 mi
6:55 AM40 °FFog.3 mph97%30.42 "Hg0 mi
5:55 AM35 °FFog.No wind100%30.42 "Hg0 mi
4:55 AM38 °FFog.No wind100%30.41 "Hg1 mi
3:55 AM40 °FFog.3 mph100%30.40 "Hg1 mi
3:02 AM42 °FFog.3 mph92%30.39 "Hg0 mi
1:55 AM43 °FFog.No wind93%30.40 "Hg2 mi
12:55 AM43 °FFog.No wind97%30.41 "Hg3 mi
11:55 PM
Fri, Feb 5
44 °FFog.3 mph93%30.42 "Hg3 mi
10:55 PM44 °FFog.7 mph93%30.43 "Hg5 mi
9:55 PM48 °FClear.3 mph86%30.42 "Hg8 mi
Weather by CustomWeather, © 2016

See weather overviewHow to use our weather pages